Regional Weather Roundup
Issued by NWS Cleveland, OH

Home | Current Version | Previous Version | Graphics & Text | Print | Product List | Glossary On
Versions: 1 2 3 4 5 6 7 8 9 10 11 12 13 14 15 16 17 18 19 20 21 22 23 24 25 26 27 28 29 30 31 32 33 34 35 36 37 38 39 40 41 42 43 44 45 46 47 48 49 50
000
ASUS41 KCLE 301610
RWRCLE
OHIO REGIONAL WEATHER ROUNDUP
NATIONAL WEATHER SERVICE WILMINGTON, OH
1200 PM EDT SAT AUG 30 2014

NOTE: "FAIR" INDICATES FEW OR NO CLOUDS BELOW 12,000 FEET WITH NO
SIGNIFICANT WEATHER AND/OR OBSTRUCTIONS TO VISIBILITY.

OHZ001>008-015>018-024>027-034-035-043-044-301700-
   NORTHWEST OHIO

CITY           SKY/WX    TMP DP  RH WIND       PRES   REMARKS
DEFIANCE       CLOUDY    81  66  60 SW15G21   29.97S
FINDLAY        PTSUNNY   83  67  58 SW16      30.00S
TOLEDO EXPRESS CLOUDY    82  66  58 SW12      29.97S
TOLEDO METCALF PTSUNNY   84  66  54 SW16G23   29.98S
LIMA           PTSUNNY   83  69  62 S12G20    30.02S
$$

OHZ009>014-019>023-028>033-038-089-301700-
   NORTHEAST OHIO

CITY           SKY/WX    TMP DP  RH WIND       PRES   REMARKS
CLE-HOPKINS    PTSUNNY   84  66  54 S15G21    30.04F
CLE-LAKEFRONT  MOSUNNY   87  63  44 SW17G25   30.00F
CUY CO. ARPT   PTSUNNY   86  70  58 S14       30.04F HX  90
LORAIN-ELYRIA  SUNNY     87  66  49 SW14      30.03F
ASHTABULA      SUNNY     81  70  69 S12       30.06F
AKRON-CANTON   MOSUNNY   84  67  56 SW13      30.08F
WOOSTER        SUNNY     82  69  64 S9        30.07F
MANSFIELD      MOSUNNY   85  64  49 SW13      30.07S
YOUNGSTOWN     MOSUNNY   82  70  66 S9        30.08F
$$

OHZ042-051>053-060>062-070>072-077>081-301700-
  SOUTHWEST OHIO

CITY           SKY/WX    TMP DP  RH WIND       PRES   REMARKS
CINC-COVINGTON CLOUDY    83  65  54 VRB7      30.08R
CINC-LUNKEN    SUNNY     86  68  54 S14G23    30.06S
HAMILTON       MOSUNNY   83  68  60 VRB7      30.07R
DAYTON         PTSUNNY   84  68  58 SW13      30.07R
WRIGHT-PAT AFB MOSUNNY   83  68  60 S14G21    30.06R
DAYTON GENERAL SUNNY     82  65  56 SW12      30.06S
WILMINGTON     SUNNY     83  68  60 S12       30.07S
$$

OHZ036-037-039>041-045>050-054>059-063>069-073>076-082>088-301700-
  CENTRAL AND SOUTHEAST OHIO

CITY           SKY/WX    TMP DP  RH WIND       PRES   REMARKS
COLUMBUS       PTSUNNY   88  65  46 S13       30.06S HX  90
OSU AIRPORT    SUNNY     86  64  47 SW14      30.06S
BOLTON FIELD   SUNNY     82  70  65 S9G17     30.07S
RICKENBACK AFB SUNNY     89  59  36 SW12G21   30.06S
NEWARK         SUNNY     84  66  54 S12       30.07S
MARION         MOSUNNY   84  67  56 SW15      30.05S
LANCASTER      SUNNY     86  65  49 SW13      30.08S
ZANESVILLE     SUNNY     84  69  60 S8        30.09F
NEW PHILLY     SUNNY     82  72  71 S8        30.09F
$$


USA.gov is the U.S. government's official web portal to all federal, state and local government web resources and services.